Temperature
21 19 19 20 25 29 32 32 32 32 32 31 31 31 31 31 30 29 24 23 22 21 21 22 22 21 21 21 21 20 20 20 20 20 20 20 20 20 20 20 20 19 19 19 19 19 19 19 19
20 19 20 23 28 32 32 32 32 32 31 30 30 30 30 30 27 25 23 22 22 21 21 22 22 21 21 21 21 21 20 20 20 20 20 20 20 20 20 20 20 20 19 19 19 19 19 19 19
20 20 23 28 31 32 32 32 32 32 31 31 31 30 30 29 26 24 23 22 22 21 21 22 22 21 21 21 21 21 21 20 20 20 20 20 20 20 20 20 20 20 20 20 20 20 20 20 19
20 22 26 30 32 32 32 33 33 33 32 31 31 30 28 25 25 23 22 22 21 21 20 22 22 21 21 21 21 21 21 21 21 21 21 21 20 20 20 20 20 20 20 20 20 20 20 20 20
22 26 30 32 32 33 33 33 32 33 32 31 31 31 28 24 24 23 22 22 22 21 20 21 22 21 21 21 21 21 21 21 21 21 21 21 20 20 20 20 20 20 19 19 19 19 19 19 19
26 29 31 32 32 33 33 32 32 33 32 31 31 31 28 24 23 23 23 22 22 21 21 20 21 21 21 21 21 21 21 21 21 21 21 21 21 20 20 20 20 19 19 19 19 19 19 19 19
28 31 32 32 32 32 33 32 33 33 32 32 31 31 28 25 24 23 22 22 22 22 21 20 20 21 21 21 21 21 21 21 21 21 21 21 20 20 20 20 20 19 19 19 19 19 19 19 19
27 31 31 32 32 32 33 32 32 32 32 30 30 31 29 25 23 23 22 22 22 21 21 19 19 19 20 20 20 21 20 20 20 20 20 20 20 20 20 20 19 19 19 19 19 19 19 19 19
26 30 31 32 32 32 33 32 32 31 31 30 29 29 28 25 23 22 22 22 21 21 20 20 19 19 19 19 20 20 20 20 20 20 20 20 19 19 19 19 19 19 19 19 19 19 18 18 18
28 30 32 32 32 32 32 32 32 32 32 30 28 26 24 24 23 23 22 22 21 20 20 19 19 19 19 19 19 19 19 19 19 19 19 19 18 19 19 18 19 19 19 19 19 19 18 18 17
29 30 31 31 31 31 31 32 31 32 32 29 28 26 24 23 23 23 22 22 21 20 20 19 19 19 19 19 19 19 18 18 18 18 18 18 18 18 18 18 18 18 19 18 18 18 18 17 18
29 30 30 30 30 30 31 31 30 29 28 26 26 26 24 24 23 23 22 21 20 20 20 19 19 19 19 19 19 18 18 18 18 18 18 18 18 18 18 18 18 18 18 18 18 18 17 17 17
29 30 30 30 30 30 29 30 29 27 26 25 24 24 24 24 23 23 21 20 20 19 19 19 18 19 19 19 19 18 18 18 18 18 18 18 18 18 18 18 18 18 18 18 18 17 17 17 17
30 29 29 29 29 29 29 28 27 25 24 24 23 23 23 23 22 21 20 19 19 19 19 18 19 19 19 18 18 18 18 18 18 18 17 17 17 17 18 17 17 18 18 18 18 17 17 17 17
28 29 30 30 29 29 29 28 25 23 23 22 21 20 19 19 19 19 19 19 19 18 18 18 18 18 18 18 18 18 17 17 17 17 17 17 17 17 17 17 17 17 17 17 17 17 17 17 17
29 30 30 29 29 29 29 27 24 23 22 21 20 19 18 18 18 18 18 18 18 18 17 17 17 17 18 18 18 17 17 17 17 17 17 17 17 17 17 17 17 17 17 17 17 17 17 17 17
30 30 30 29 29 29 29 26 23 22 22 21 20 19 18 17 17 17 17 17 17 17 17 17 17 17 17 17 17 17 17 17 17 16 16 16 16 16 16 16 16 17 16 16 17 17 17 17 17
29 30 29 29 28 28 27 24 23 22 22 21 20 19 18 17 16 16 16 16 17 17 17 17 17 17 17 17 17 17 17 16 16 16 16 16 16 16 16 16 16 16 16 16 16 17 17 17 17
29 29 29 28 27 27 26 24 23 22 21 21 20 19 18 17 16 16 16 16 16 16 16 16 17 17 17 16 16 16 16 16 16 16 16 16 16 16 16 16 16 16 16 16 16 16 16 16 16
29 29 29 27 26 26 25 24 23 22 21 20 20 19 18 18 17 16 16 16 16 16 16 16 16 17 17 16 16 16 16 16 16 15 15 15 15 15 15 15 15 15 15 16 16 16 16 16 16
29 29 29 28 26 26 25 24 23 23 21 20 20 19 19 18 18 17 17 16 16 16 16 16 17 16 16 16 16 16 16 16 15 15 15 15 15 15 15 15 15 15 15 15 16 16 16 16 16
28 29 29 27 27 27 27 26 24 23 23 22 21 20 19 18 18 18 17 17 16 16 16 16 16 16 16 16 15 15 15 15 15 15 15 15 15 15 15 15 15 15 15 15 15 15 16 16 16
28 28 28 28 28 27 27 27 24 24 23 23 22 20 20 19 18 18 17 17 16 16 16 16 16 16 16 15 15 15 15 15 15 14 14 14 14 14 14 14 15 15 15 15 15 15 15 15 15
28 28 28 28 28 26 26 26 24 24 23 23 22 21 19 19 18 18 17 17 17 16 16 16 15 15 15 15 15 14 14 14 14 14 14 14 14 14 14 14 14 14 14 14 14 14 15 15 15
28 28 27 26 26 26 26 26 23 23 23 22 22 21 20 19 19 18 18 17 17 16 16 16 15 15 14 14 14 14 14 13 13 13 14 14 14 14 13 13 13 13 13 13 13 14 14 14 14
27 27 26 25 25 26 25 24 23 22 21 21 21 20 20 19 19 18 18 17 17 16 16 15 14 14 14 14 13 13 13 13 13 13 13 13 13 13 13 12 12 12 12 12 12 13 13 13 14
27 27 27 27 26 26 25 24 22 22 22 21 21 20 20 20 19 18 18 17 17 16 15 14 14 13 13 13 13 13 13 12 12 12 12 12 12 13 12 12 12 12 12 11 11 12 12 12 13
27 27 27 26 25 25 25 24 23 22 22 22 21 21 20 19 19 18 17 17 16 15 14 14 13 13 13 12 12 13 12 12 12 12 12 12 11 11 11 11 11 11 11 11 11 11 11 11 12
26 26 26 26 25 24 24 24 23 22 22 22 21 20 19 19 18 17 17 16 15 14 14 14 13 12 12 12 11 11 11 11 11 11 11 11 11 11 11 11 11 11 11 11 10 10 10 10 11
26 25 25 25 24 24 24 24 22 22 22 21 20 19 18 18 17 16 16 15 14 14 13 13 12 12 12 11 11 11 10 10 10 11 11 11 10 10 10 10 10 11 11 11 10 10 10 10 10
Wind_Speed
18 15 9 5 5 4 5 7 6 5 3 3 1 1 3 4 5 4 4 12 17 20 22 22 20 18 17 16 15 15 15 15 16 15 15 15 14 13 12 11 10 9 8 8 7 6 7 7 8
15 12 7 5 5 2 6 6 7 6 4 1 1 1 2 3 4 4 7 14 19 20 21 21 21 19 17 16 16 15 15 15 15 14 14 14 13 12 12 11 10 9 8 8 7 6 7 7 7
13 9 4 4 3 6 7 7 6 3 1 1 0 1 3 4 4 4 9 17 19 18 19 20 21 19 17 16 15 15 14 14 14 14 13 13 12 12 11 11 10 9 8 8 7 7 7 7 7
8 6 5 6 4 4 5 6 4 2 1 0 0 3 4 5 3 7 14 18 19 18 18 21 20 19 17 16 15 15 14 14 13 13 12 12 11 11 11 10 10 9 8 8 7 7 7 7 7
6 5 7 6 3 4 4 6 4 4 3 1 0 3 5 5 7 13 16 18 18 18 17 21 20 18 17 16 16 15 14 14 13 13 12 11 11 10 10 10 9 8 8 7 7 7 7 8 8
5 5 9 7 3 3 4 5 4 3 2 1 1 4 6 7 10 14 15 16 17 17 16 19 19 18 17 16 15 15 14 14 13 12 12 11 11 10 10 9 9 9 9 8 8 8 8 9 9
7 7 10 9 6 3 5 6 5 4 2 0 1 3 7 10 12 14 14 14 15 16 15 16 18 17 16 15 15 14 13 13 12 12 11 11 10 10 10 10 10 10 10 9 9 9 10 10 10
6 6 11 9 7 5 5 6 4 4 2 2 1 1 7 13 14 15 14 14 14 14 14 14 14 15 15 15 15 14 13 12 12 11 11 11 11 11 12 12 12 12 11 11 11 12 12 13 13
5 8 12 9 7 5 7 8 5 2 1 2 2 4 8 18 18 16 15 14 14 13 12 13 13 13 13 13 14 14 13 13 12 13 13 12 13 14 14 16 14 13 13 13 14 14 14 15 16
8 12 12 6 7 8 8 8 6 3 2 1 4 7 12 17 18 18 17 17 16 15 14 12 12 12 11 9 10 10 11 11 12 11 11 13 12 12 12 9 12 13 15 15 16 17 16 17 15
9 12 9 7 7 8 8 7 5 6 3 5 3 6 13 16 16 16 16 16 16 15 14 13 12 11 9 6 6 6 6 6 9 10 11 11 11 11 12 11 11 14 16 16 15 17 16 15 13
10 11 10 9 8 8 8 7 4 6 8 8 3 4 11 14 14 15 15 14 14 14 14 13 12 10 7 5 5 5 5 4 6 8 11 11 9 9 10 9 10 10 10 11 11 10 13 13 14
12 11 9 9 9 8 6 4 2 6 8 6 4 5 7 9 10 10 10 11 12 13 12 11 10 8 6 5 4 4 4 5 7 7 9 11 10 11 10 9 9 11 11 10 9 10 11 11 12
8 9 9 9 8 6 4 1 1 7 8 7 7 6 5 5 6 7 8 9 10 11 11 10 9 8 5 4 4 4 5 5 8 8 11 12 11 10 10 10 10 10 10 10 9 10 10 10 10
8 9 8 4 5 6 7 3 5 7 5 7 8 9 9 8 7 5 5 5 7 8 7 7 7 6 5 5 5 5 6 7 8 9 11 12 13 12 10 10 10 9 10 10 9 10 9 10 10
8 10 7 3 1 4 9 2 8 5 5 7 8 9 9 9 8 6 5 3 2 3 3 3 3 3 4 5 5 6 7 8 8 9 10 12 13 13 10 9 8 7 8 7 8 9 9 9 9
8 6 5 6 5 2 2 5 7 5 6 7 7 8 8 8 8 7 7 5 4 3 2 2 1 2 4 5 6 6 6 7 8 9 9 9 11 11 9 8 6 6 6 7 8 8 7 8 8
2 3 3 5 6 5 7 8 7 7 7 8 7 7 7 7 7 6 5 5 4 3 2 1 1 1 3 4 5 5 6 6 6 6 7 8 7 7 6 6 5 5 6 6 7 6 6 7 7
2 2 2 5 4 4 7 8 8 7 7 7 7 6 6 6 6 5 4 3 3 3 2 1 1 1 2 3 5 5 5 5 5 5 5 6 6 5 5 5 3 4 6 7 7 6 7 7 6
4 4 3 6 5 3 6 8 7 7 7 6 6 6 6 6 5 4 4 3 3 3 2 0 1 2 3 3 4 4 5 5 5 4 4 5 5 5 4 4 4 5 5 6 6 6 6 6 6
5 4 1 3 5 6 7 7 7 7 6 6 5 5 5 5 4 4 4 3 3 2 1 1 2 3 4 5 5 4 4 5 4 4 4 4 4 4 4 5 5 5 6 6 7 7 9 7 6
4 1 2 5 7 4 7 3 8 7 6 5 4 3 3 3 3 2 2 1 1 1 1 2 3 4 5 6 6 6 6 6 5 4 4 4 4 4 5 5 5 6 7 7 7 8 7 8 9
3 2 4 7 8 5 6 5 7 6 4 4 3 2 1 1 1 0 1 1 2 3 3 4 4 5 5 6 7 8 8 7 6 5 4 5 4 4 4 4 4 5 6 7 7 7 9 9 10
1 3 5 8 8 6 1 5 5 4 2 3 2 1 1 2 2 3 3 4 5 5 6 6 7 7 7 8 9 9 10 10 9 8 7 6 5 4 4 4 4 4 4 5 6 8 10 11 11
4 7 7 6 5 1 2 2 6 5 3 2 0 1 2 3 4 5 6 7 8 9 9 9 10 10 10 11 11 11 11 11 11 11 9 8 7 6 4 4 4 5 4 5 6 7 9 10 11
3 6 6 6 6 3 2 1 6 4 3 2 2 3 4 5 6 7 8 9 10 11 11 11 11 11 12 12 12 12 13 12 12 11 12 11 9 9 6 6 6 6 6 6 6 6 7 7 9
3 3 5 6 6 5 1 5 6 4 2 2 4 5 6 7 8 9 10 11 12 12 11 11 12 13 13 14 13 13 14 14 14 14 13 14 11 11 10 10 9 8 7 7 7 7 7 7 8
5 3 4 5 6 6 2 2 2 2 5 5 6 7 8 9 10 12 12 12 12 12 12 13 14 15 15 15 15 14 14 15 14 15 16 15 14 14 13 13 12 11 10 9 9 8 8 8 8
4 3 4 3 5 6 7 3 5 5 6 7 8 8 10 11 13 13 13 13 13 14 15 15 15 16 16 16 15 16 16 17 17 16 17 16 15 15 15 15 15 14 13 11 10 10 10 10 10
6 5 5 5 4 4 8 3 6 5 6 7 9 10 11 13 14 15 15 14 15 16 16 17 17 17 17 17 17 17 17 17 18 18 18 17 16 16 17 16 16 16 15 14 13 13 12 11 11
Wind_Direction
158 164 178 201 235 230 43 39 21 17 24 32 97 263 326 337 337 15 92 148 151 150 147 154 157 160 161 160 157 155 155 157 158 158 159 159 159 159 159 160 160 161 160 155 149 142 135 130 127
161 164 190 229 268 355 57 31 19 23 33 77 145 238 316 20 37 82 126 147 152 150 151 158 155 161 163 162 160 159 159 159 159 160 161 161 161 162 164 166 167 168 168 162 157 153 147 141 138
161 187 236 252 292 357 17 20 14 31 63 273 69 1 2 33 75 111 134 149 153 150 152 152 157 162 165 164 163 163 163 163 163 164 165 166 166 168 171 173 176 177 176 172 170 167 160 155 154
172 211 236 255 308 16 354 354 347 350 51 337 258 101 86 50 75 121 140 152 152 152 156 152 161 164 166 167 167 167 167 167 168 169 170 171 173 175 178 181 184 184 183 182 181 180 175 171 171
222 249 253 255 311 15 358 354 335 322 355 20 287 100 98 80 101 129 145 153 155 157 156 154 163 165 168 169 170 171 171 172 173 174 176 178 181 184 188 190 192 193 194 196 196 194 192 188 187
229 249 266 282 326 354 11 1 325 328 349 64 143 118 102 118 130 141 149 158 159 159 158 152 163 167 170 172 174 176 177 178 179 181 183 185 189 193 198 200 203 206 208 210 211 209 207 205 203
261 266 276 288 302 311 1 344 327 325 302 23 150 123 125 141 141 146 150 159 161 162 158 158 167 170 174 176 179 180 182 184 187 190 192 196 200 204 209 213 215 218 221 222 222 221 221 218 215
265 269 265 267 280 298 351 335 338 323 360 67 195 157 142 150 149 147 151 160 164 165 165 163 170 171 177 180 183 186 188 191 195 200 204 208 212 216 218 222 217 224 229 230 231 230 230 228 223
243 252 261 269 281 302 338 330 340 326 125 116 62 38 108 143 150 152 156 162 167 170 169 170 172 174 184 187 178 188 193 198 203 207 209 216 224 222 215 223 214 222 232 235 237 237 236 235 230
226 251 262 285 294 304 319 317 323 284 218 104 98 103 128 148 159 163 165 168 171 173 176 176 180 177 189 192 180 199 205 201 215 222 217 221 231 239 238 209 210 227 236 239 240 242 241 239 239
228 251 269 268 282 298 299 309 324 301 327 1 332 156 156 163 169 173 173 173 172 175 180 182 183 181 191 193 197 208 219 217 225 232 234 239 243 238 238 233 216 224 231 237 234 234 238 238 240
237 246 259 269 283 287 294 300 321 358 357 352 342 164 168 176 180 180 176 173 172 179 184 186 182 182 190 203 208 218 233 238 248 239 241 242 242 246 244 239 240 234 232 235 243 240 241 244 245
236 248 253 261 268 277 282 289 317 9 1 19 57 135 169 178 177 175 169 172 174 180 184 186 185 183 188 199 228 235 254 263 262 267 253 251 250 247 245 244 243 245 243 237 239 246 248 248 249
255 260 261 267 265 251 221 137 35 9 16 44 65 83 102 125 138 144 159 172 179 184 186 186 191 191 199 217 239 256 260 264 274 269 265 260 258 255 250 245 241 244 246 246 245 247 250 250 250
262 256 238 237 233 198 184 124 42 15 35 64 73 75 71 70 82 106 144 170 182 186 186 193 200 199 211 237 252 263 268 268 270 272 271 265 262 260 255 252 244 244 245 244 243 248 249 249 247
236 228 202 104 146 186 226 169 48 29 70 75 78 80 78 69 67 69 81 97 111 150 164 194 219 222 234 252 268 271 275 279 277 280 275 269 268 263 257 253 246 244 242 240 239 242 244 246 249
209 202 160 112 61 140 185 94 59 47 80 84 81 79 77 72 61 55 59 70 71 89 128 165 216 252 267 275 273 272 275 279 279 277 275 274 270 269 262 253 250 247 242 243 248 238 241 249 252
172 175 147 109 74 100 104 101 80 65 74 78 79 79 76 69 63 61 61 74 86 89 105 128 168 250 277 277 274 275 275 278 280 283 282 278 272 273 272 256 247 249 242 240 244 251 239 255 256
276 237 134 106 107 93 104 102 85 78 76 76 74 76 76 72 71 70 70 77 93 95 93 76 338 301 283 286 291 292 294 295 294 293 293 293 290 287 279 280 254 238 242 244 246 243 235 237 238
230 220 161 129 131 139 127 112 98 83 78 77 82 85 86 88 85 79 82 88 93 98 99 148 282 295 290 289 285 285 293 293 297 304 302 300 303 298 284 278 265 251 250 246 248 244 253 245 222
238 263 236 157 155 165 166 151 133 114 107 102 95 93 93 91 87 84 83 83 87 86 57 360 328 310 301 297 288 286 274 277 289 299 300 303 304 302 297 287 277 266 258 250 241 241 238 244 235
260 314 250 193 208 205 226 222 144 141 131 117 106 101 103 102 95 89 88 68 40 8 339 322 304 301 299 294 300 304 306 309 310 306 314 313 310 311 313 306 287 272 264 258 249 239 242 241 241
340 344 246 230 249 255 224 266 133 150 141 130 120 113 121 137 146 190 263 310 313 307 304 301 299 297 294 293 294 292 297 303 302 303 304 305 311 306 309 309 303 291 281 273 263 257 245 238 242
232 225 218 231 245 245 245 286 121 115 97 122 137 169 226 247 257 263 270 280 290 294 293 294 295 293 292 291 293 290 294 294 295 291 291 286 289 292 298 297 293 285 283 279 270 260 247 245 244
263 271 260 246 239 223 116 274 84 77 66 54 356 280 278 275 276 279 286 293 296 296 297 299 299 297 295 290 287 285 283 282 277 279 280 277 281 278 270 280 278 278 276 275 272 266 267 254 246
330 303 307 307 312 325 165 112 97 83 72 31 339 313 296 291 288 290 295 297 298 300 303 305 306 305 302 296 291 285 281 278 278 275 280 279 278 278 272 253 251 257 260 260 259 263 259 263 259
322 346 336 294 287 290 139 124 124 117 72 339 316 306 304 306 306 304 305 306 307 308 309 310 309 305 302 300 297 287 282 280 282 281 271 270 267 267 258 249 245 243 242 248 253 258 256 252 254
24 354 311 314 323 313 299 177 123 52 357 342 328 321 319 317 315 317 316 314 315 312 310 309 306 303 302 299 296 293 291 285 279 275 277 276 274 268 262 254 249 245 241 237 242 253 250 249 246
22 26 356 335 338 319 320 30 75 17 342 327 325 323 321 320 320 320 317 315 313 311 310 310 309 306 302 300 298 295 291 289 285 278 273 270 266 265 259 254 250 246 243 238 235 246 248 248 249
45 25 359 336 343 319 309 16 96 5 326 318 317 319 319 318 316 316 316 315 312 312 313 311 309 306 303 301 298 294 292 289 285 281 278 274 268 261 257 254 251 248 244 239 235 238 243 243 245
Height
1518 1521 1524 1526 1520 1507 1497 1492 1489 1489 1488 1491 1492 1492 1491 1492 1495 1502 1505 1504 1507 1510 1511 1514 1517 1520 1523 1526 1528 1531 1533 1535 1537 1539 1540 1542 1543 1544 1545 1546 1547 1549 1550 1551 1552 1553 1554 1555 1556
1520 1522 1526 1524 1509 1499 1498 1492 1491 1490 1492 1493 1493 1494 1494 1495 1500 1503 1503 1505 1508 1511 1513 1515 1518 1521 1524 1526 1529 1531 1534 1536 1537 1539 1541 1542 1543 1545 1546 1547 1548 1549 1550 1551 1552 1554 1554 1555 1556
1522 1524 1524 1513 1501 1500 1498 1491 1491 1492 1493 1494 1494 1495 1496 1498 1502 1503 1504 1505 1509 1513 1515 1516 1519 1522 1525 1527 1530 1532 1534 1536 1538 1539 1541 1542 1543 1545 1546 1547 1548 1549 1551 1552 1553 1554 1555 1556 1557
1524 1525 1521 1509 1498 1495 1494 1491 1491 1490 1492 1494 1494 1495 1499 1502 1503 1504 1504 1507 1511 1513 1517 1517 1520 1523 1526 1528 1530 1532 1534 1536 1538 1539 1541 1542 1543 1545 1546 1547 1548 1550 1551 1552 1553 1554 1555 1556 1557
1524 1520 1508 1499 1494 1492 1491 1492 1491 1489 1491 1493 1494 1495 1500 1504 1504 1504 1506 1510 1513 1516 1519 1519 1521 1524 1526 1529 1531 1533 1535 1536 1538 1539 1541 1542 1543 1545 1546 1547 1548 1549 1550 1552 1553 1554 1555 1555 1556
1522 1514 1505 1498 1494 1492 1490 1492 1491 1490 1491 1494 1494 1495 1502 1505 1505 1507 1509 1512 1515 1518 1520 1520 1522 1524 1527 1529 1531 1533 1535 1536 1538 1539 1540 1542 1543 1544 1545 1546 1547 1548 1550 1551 1552 1553 1554 1554 1555
1518 1507 1501 1498 1496 1493 1492 1492 1490 1490 1491 1493 1494 1495 1502 1506 1507 1509 1511 1514 1517 1520 1521 1521 1523 1525 1527 1529 1531 1533 1535 1536 1538 1539 1540 1541 1542 1543 1544 1545 1546 1547 1548 1549 1550 1551 1552 1553 1554
1517 1508 1500 1496 1496 1493 1492 1492 1491 1491 1492 1495 1496 1494 1499 1505 1506 1509 1511 1514 1517 1520 1522 1523 1525 1526 1528 1530 1531 1533 1534 1536 1537 1538 1539 1540 1541 1542 1542 1543 1544 1545 1546 1547 1548 1549 1550 1551 1552
1516 1509 1500 1494 1494 1492 1492 1492 1491 1492 1493 1495 1497 1498 1500 1502 1505 1508 1510 1514 1516 1519 1521 1523 1525 1526 1528 1531 1531 1532 1533 1534 1536 1537 1537 1538 1540 1541 1541 1542 1542 1543 1544 1545 1546 1547 1548 1548 1549
1511 1503 1495 1493 1494 1493 1493 1493 1492 1491 1490 1494 1497 1499 1500 1501 1503 1506 1509 1511 1514 1517 1520 1522 1524 1525 1528 1531 1531 1532 1533 1534 1534 1536 1536 1537 1538 1539 1540 1540 1539 1540 1541 1542 1543 1543 1544 1545 1547
1504 1499 1494 1495 1496 1496 1494 1493 1492 1490 1489 1495 1497 1499 1500 1502 1503 1506 1508 1510 1512 1515 1518 1520 1522 1523 1526 1528 1529 1531 1532 1533 1533 1534 1534 1534 1536 1536 1537 1537 1537 1536 1537 1538 1539 1540 1541 1542 1543
1501 1498 1498 1496 1496 1496 1494 1493 1493 1495 1497 1498 1498 1499 1500 1502 1504 1506 1508 1509 1511 1514 1516 1519 1520 1522 1523 1525 1527 1528 1530 1531 1531 1531 1530 1531 1531 1532 1533 1533 1534 1534 1534 1534 1536 1536 1537 1537 1538
1499 1496 1496 1496 1495 1495 1495 1495 1496 1498 1499 1499 1499 1500 1501 1503 1505 1507 1509 1510 1511 1513 1515 1517 1518 1520 1521 1522 1524 1526 1526 1527 1528 1527 1526 1526 1526 1527 1528 1527 1528 1529 1530 1530 1530 1531 1532 1533 1533
1495 1495 1494 1493 1493 1493 1494 1495 1498 1501 1501 1501 1501 1502 1503 1504 1506 1508 1509 1510 1511 1513 1514 1516 1516 1517 1519 1520 1521 1521 1522 1522 1523 1522 1522 1521 1521 1521 1521 1521 1522 1523 1524 1525 1526 1527 1527 1528 1529
1496 1493 1490 1490 1490 1491 1492 1496 1502 1505 1504 1504 1504 1505 1505 1506 1507 1508 1510 1511 1512 1513 1514 1514 1515 1516 1517 1518 1519 1519 1519 1519 1519 1518 1516 1515 1515 1514 1514 1515 1516 1517 1518 1519 1520 1521 1522 1523 1524
1490 1488 1487 1488 1488 1490 1491 1497 1505 1506 1505 1506 1507 1508 1508 1509 1509 1510 1510 1511 1511 1512 1513 1513 1515 1515 1515 1516 1516 1516 1516 1515 1514 1513 1512 1510 1509 1508 1508 1509 1510 1511 1513 1514 1515 1517 1518 1519 1520
1484 1484 1484 1488 1489 1488 1487 1499 1507 1507 1507 1508 1509 1510 1511 1511 1511 1511 1510 1511 1511 1511 1512 1512 1513 1514 1514 1514 1514 1513 1512 1511 1509 1508 1506 1505 1504 1503 1503 1502 1503 1504 1506 1508 1511 1513 1513 1514 1515
1486 1483 1486 1489 1491 1489 1493 1503 1507 1509 1509 1510 1511 1512 1513 1513 1513 1512 1511 1511 1511 1511 1512 1512 1513 1513 1513 1513 1512 1511 1509 1508 1506 1504 1502 1501 1500 1498 1497 1496 1497 1498 1500 1503 1506 1507 1507 1509 1511
1484 1485 1488 1491 1494 1494 1499 1504 1508 1510 1511 1512 1513 1514 1514 1514 1514 1513 1512 1512 1512 1512 1512 1512 1512 1512 1512 1512 1511 1510 1508 1506 1504 1502 1499 1498 1496 1495 1494 1492 1492 1494 1496 1498 1501 1503 1504 1506 1508
1485 1486 1488 1493 1495 1496 1502 1506 1509 1511 1513 1514 1515 1515 1515 1516 1516 1515 1514 1514 1513 1512 1512 1512 1512 1511 1511 1510 1509 1507 1505 1504 1502 1500 1497 1495 1493 1492 1491 1490 1490 1491 1493 1494 1496 1498 1500 1503 1504
1485 1484 1485 1490 1495 1496 1499 1506 1508 1511 1514 1515 1516 1516 1516 1517 1516 1516 1516 1515 1514 1513 1512 1512 1511 1510 1510 1509 1508 1506 1503 1501 1500 1498 1495 1493 1491 1490 1489 1488 1488 1489 1490 1491 1492 1494 1497 1499 1501
1487 1482 1484 1489 1494 1492 1495 1501 1506 1507 1510 1513 1515 1516 1517 1517 1517 1517 1516 1515 1515 1513 1512 1511 1510 1509 1508 1507 1506 1505 1503 1501 1499 1496 1494 1491 1490 1488 1487 1487 1487 1487 1488 1488 1489 1492 1493 1495 1498
1485 1485 1484 1485 1487 1489 1490 1494 1503 1504 1508 1511 1514 1516 1516 1517 1517 1517 1516 1515 1514 1513 1512 1510 1509 1507 1506 1504 1503 1501 1500 1499 1497 1494 1492 1489 1488 1486 1485 1484 1484 1484 1484 1485 1486 1487 1489 1491 1494
1486 1486 1485 1483 1482 1497 1492 1496 1505 1504 1508 1509 1513 1515 1516 1516 1516 1516 1515 1514 1513 1512 1511 1509 1507 1506 1504 1502 1500 1499 1497 1495 1494 1492 1490 1488 1486 1484 1483 1481 1480 1480 1480 1481 1481 1482 1484 1486 1488
1484 1488 1495 1498 1498 1499 1493 1497 1510 1507 1509 1511 1512 1514 1515 1515 1515 1514 1514 1512 1511 1510 1508 1507 1504 1502 1500 1499 1497 1495 1493 1491 1490 1488 1487 1485 1483 1482 1479 1478 1477 1477 1476 1476 1477 1477 1479 1480 1482
1487 1488 1499 1509 1504 1495 1494 1502 1510 1510 1512 1513 1513 1513 1514 1513 1513 1512 1511 1510 1509 1507 1505 1503 1500 1498 1496 1494 1492 1490 1488 1487 1485 1484 1482 1481 1479 1478 1476 1474 1473 1472 1472 1472 1472 1472 1472 1474 1475
1487 1488 1487 1491 1493 1498 1496 1503 1509 1510 1511 1512 1512 1512 1512 1512 1511 1510 1509 1507 1505 1503 1501 1499 1496 1494 1491 1489 1487 1484 1482 1480 1479 1477 1476 1475 1474 1473 1471 1470 1469 1468 1468 1467 1467 1467 1467 1468 1468
1491 1490 1490 1493 1507 1507 1498 1501 1508 1508 1509 1509 1510 1510 1510 1510 1509 1508 1506 1504 1502 1500 1498 1495 1492 1489 1486 1483 1481 1479 1477 1474 1472 1470 1469 1468 1467 1466 1465 1465 1464 1464 1463 1462 1462 1462 1462 1462 1462
1494 1494 1494 1494 1499 1509 1509 1505 1503 1507 1508 1508 1508 1509 1509 1508 1507 1505 1503 1501 1499 1496 1493 1490 1487 1483 1480 1477 1474 1471 1469 1467 1465 1463 1461 1460 1459 1459 1458 1458 1458 1458 1458 1457 1457 1457 1457 1457 1458
1496 1499 1497 1504 1507 1505 1505 1505 1504 1506 1507 1508 1508 1508 1508 1507 1505 1503 1500 1497 1495 1492 1488 1485 1481 1478 1474 1471 1467 1464 1461 1459 1456 1455 1453 1451 1450 1450 1450 1450 1450 1450 1451 1451 1451 1452 1452 1453 1453